FW5647 Weather Reports


time (UTC)temp
C
wind
direction
speed
KPH
gust
KPH
rain 1hr
cm
rain 24hr
cm
rain mn
cm
humidity
%
barometer
mb
20260904101549 19 0 0.0 6.4 0.03 0.53 0.03 97 1015.3
20260904100045 19 119 4.8 8.0 0.00 0.51 0.00 97 1014.9
20260904094543 19 124 0.0 4.8 0.00 0.51 0.00 97 1014.8
20260904093044 19 0 0.0 3.2 0.00 0.51 0.00 97 1014.7
20260904091542 19 0 0.0 3.2 0.00 0.51 0.00 97 1014.6
20260904090042 19 0 0.0 1.6 0.00 0.51 0.00 97 1015.2
20260904084541 19 0 0.0 1.6 0.00 0.51 0.00 97 1015.3
20260904083044 18 0 0.0 1.6 0.00 0.51 0.00 97 1015.1
20260904081543 18 110 0.0 1.6 0.00 0.51 0.00 97 1015.2
20260904080040 18 0 0.0 1.6 0.00 0.51 0.00 97 1015.2
20260904074550 19 0 0.0 0.0 0.00 0.51 0.00 97 1015.0
20260904073044 19 0 0.0 1.6 0.00 0.51 0.00 97 1014.9
20260904071543 19 0 0.0 0.0 0.00 0.51 0.00 97 1015.1
20260904070048 19 0 0.0 1.6 0.00 0.51 0.00 97 1015.5
20260904064542 19 0 0.0 1.6 0.00 0.51 0.00 97 1015.9
20260904063045 19 0 0.0 0.0 0.00 0.51 0.00 97 1015.9
20260904061546 19 0 0.0 0.0 0.00 0.51 0.00 97 1016.0
20260904060047 19 0 0.0 1.6 0.00 0.51 0.00 97 1015.9
20260904054542 19 0 0.0 0.0 0.00 0.51 0.00 97 1016.0
20260904053045 18 0 0.0 0.0 0.00 0.51 0.00 97 1016.2
20260904051557 19 0 0.0 0.0 0.00 0.51 0.00 97 1016.0
20260904050047 18 0 0.0 1.6 0.00 0.51 0.00 97 1016.0
20260904044541 18 0 0.0 1.6 0.00 0.89 0.00 97 1016.1
20260904043042 18 0 0.0 1.6 0.00 0.89 0.00 97 1016.2
20260904041544 18 0 0.0 0.0 0.00 0.89 0.00 97 1015.8
20260904040045 18 0 0.0 0.0 0.00 0.89 0.00 97 1015.7
20260904034537 18 0 0.0 0.0 0.00 0.89 0.89 97 1015.5
20260904033044 18 0 0.0 0.0 0.00 0.89 0.89 97 1015.3
20260904031541 18 0 0.0 0.0 0.00 0.89 0.89 97 1015.5
20260904030049 18 0 0.0 0.0 0.00 0.89 0.89 97 1015.2
20260904024546 18 0 0.0 0.0 0.00 0.89 0.89 97 1015.2
20260904023041 18 0 0.0 0.0 0.00 0.89 0.89 97 1015.3
20260904021541 18 0 0.0 0.0 0.00 0.89 0.89 97 1015.3
20260904020049 18 0 0.0 0.0 0.00 0.89 0.89 97 1015.4
20260904014602 19 0 0.0 0.0 0.00 0.89 0.89 97 1015.3
20260904013040 19 0 0.0 0.0 0.00 0.89 0.89 97 1015.2
20260904011549 19 0 0.0 0.0 0.00 0.89 0.89 97 1015.4
20260904010052 20 0 0.0 0.0 0.00 0.89 0.89 97 1015.4
20260904004543 20 0 0.0 0.0 0.00 0.89 0.89 97 1015.3
20260904003041 20 0 0.0 0.0 0.00 0.89 0.89 97 1015.1
20260904001542 20 0 0.0 0.0 0.00 0.89 0.89 97 1014.9
20260904000054 20 82 0.0 1.6 0.00 0.89 0.89 97 1014.8
20260903234542 20 0 0.0 4.8 0.00 0.89 0.89 97 1014.4
20260903233043 20 92 1.6 6.4 0.00 0.89 0.89 97 1014.7
20260903231542 20 110 3.2 6.4 0.00 0.89 0.89 97 1014.7
20260903230047 20 198 1.6 8.0 0.00 0.89 0.89 97 1014.9
20260903224542 21 142 1.6 8.0 0.00 0.89 0.89 97 1014.7
20260903223041 21 187 1.6 8.0 0.00 0.89 0.89 97 1014.8
20260903221547 21 94 3.2 6.4 0.00 0.89 0.89 96 1015.0
20260903220052 21 98 3.2 8.0 0.00 0.89 0.89 96 1015.4
20260903214544 21 94 1.6 9.7 0.00 0.89 0.89 96 1016.0
20260903213042 21 0 0.0 1.6 0.00 0.89 0.89 97 1015.9
20260903211547 21 146 4.8 9.7 0.00 0.89 0.89 97 1016.2
20260903210050 21 257 0.0 0.0 0.23 0.89 0.89 97 1016.1
20260903204602 20 335 0.0 0.0 0.46 0.89 0.89 96 1015.4
20260903203041 20 0 0.0 0.0 0.46 0.89 0.89 96 1015.7
20260903201547 20 0 0.0 4.8 0.43 0.86 0.86 95 1015.2
20260903200041 20 0 0.0 8.0 0.20 0.64 0.64 94 1016.3
20260903193142 28 0 0.0 3.2 0.03 0.41 0.41 80 1012.6
20260903191541 30 0 0.0 8.0 0.00 0.38 0.38 75 1013.0
20260903190041 30 238 3.2 8.0 0.00 0.38 0.38 71 1013.8
20260903184543 29 0 0.0 3.2 0.00 0.38 0.38 71 1013.9
20260903183041 28 108 4.8 9.7 0.00 0.38 0.38 69 1014.4
20260903181540 28 0 1.6 9.7 0.00 0.38 0.38 68 1014.6
20260903180040 28 122 1.6 9.7 0.00 0.38 0.38 68 1014.5
20260903174544 28 131 3.2 12.9 0.00 0.38 0.38 68 1014.5
20260903173042 27 0 1.6 9.7 0.00 0.38 0.38 72 1014.6
20260903171545 27 124 1.6 8.0 0.00 0.38 0.38 74 1014.6
20260903170040 26 118 1.6 17.7 0.00 0.38 0.38 77 1014.3
20260903164547 25 129 3.2 9.7 0.00 0.38 0.38 79 1014.5
20260903163049 24 0 4.8 11.3 0.00 0.38 0.38 82 1014.8
20260903161548 23 116 0.0 4.8 0.00 0.38 0.38 86 1015.2
20260903160058 23 0 1.6 9.7 0.00 0.38 0.38 87 1015.7
20260903154543 23 350 0.0 4.8 0.00 0.38 0.38 94 1016.0
20260903153041 23 0 0.0 19.3 0.00 0.38 0.38 94 1015.5
20260903151541 23 319 0.0 3.2 0.00 0.38 0.38 94 1016.1
20260903150058 23 0 0.0 0.0 0.00 0.38 0.38 93 1014.9
20260903144544 23 0 0.0 14.5 0.00 0.38 0.38 93 1014.6
20260903143042 23 0 4.8 14.5 0.00 0.38 0.38 95 1015.5
20260903141543 24 0 0.0 0.0 0.00 0.38 0.38 95 1015.2
20260903140047 24 0 0.0 0.0 0.00 0.38 0.38 95 1014.9
20260903134543 24 0 0.0 0.0 0.00 0.38 0.38 96 1014.7
20260903133042 24 0 0.0 6.4 0.00 0.38 0.38 96 1015.3
20260903131541 23 281 0.0 3.2 0.00 0.38 0.38 97 1015.1
20260903130041 23 0 0.0 0.0 0.00 0.38 0.38 97 1015.1
20260903124551 22 0 0.0 0.0 0.00 0.38 0.38 97 1015.0
20260903123040 21 0 0.0 0.0 0.00 0.38 0.38 97 1015.3
20260903121538 21 0 0.0 0.0 0.00 0.38 0.38 97 1015.2
20260903120057 20 0 0.0 0.0 0.00 0.38 0.38 97 1015.1
20260903114540 20 0 0.0 0.0 0.00 0.38 0.38 96 1015.1
20260903113048 20 0 0.0 0.0 0.00 0.38 0.38 96 1015.1
20260903111546 20 0 0.0 0.0 0.00 0.38 0.38 96 1015.0
20260903110043 20 0 0.0 0.0 0.00 0.38 0.38 96 1014.9
20260903104547 20 0 0.0 0.0 0.00 0.38 0.38 96 1014.9
20260903103040 20 0 0.0 0.0 0.00 0.38 0.38 96 1014.6